Time,TemperatureF,DewpointF,PressureIn,WindDirection,WindDirectionDegrees,WindSpeedMPH,WindSpeedGustMPH,Humidity,HourlyPrecipIn,Conditions,Clouds,dailyrainin,SoftwareType,DateUTC
2013-03-06 00:07:00,55.7,46.0,30.10,WSW,248,4.0,7.0,70,0.00,,,0.00,weatherlink.com 1.10,2013-03-06 08:07:00,
2013-03-06 00:22:00,55.5,45.0,30.10,WNW,285,1.0,5.0,69,0.00,,,0.00,weatherlink.com 1.10,2013-03-06 08:22:00,
2013-03-06 00:37:00,55.3,45.0,30.09,WNW,285,1.0,6.0,68,0.00,,,0.00,weatherlink.com 1.10,2013-03-06 08:37:00,
2013-03-06 00:52:00,55.4,45.0,30.10,West,260,6.0,6.0,67,0.00,,,0.00,weatherlink.com 1.10,2013-03-06 08:52:00,
2013-03-06 01:07:00,55.3,44.0,30.09,SW,236,3.0,6.0,65,0.00,,,0.00,weatherlink.com 1.10,2013-03-06 09:07:00,
2013-03-06 01:22:00,55.2,44.0,30.10,SW,236,2.0,6.0,65,0.00,,,0.00,weatherlink.com 1.10,2013-03-06 09:22:00,
2013-03-06 01:37:00,55.2,44.0,30.09,West,266,1.0,5.0,65,0.00,,,0.00,weatherlink.com 1.10,2013-03-06 09:37:00,
2013-03-06 01:52:00,55.2,43.0,30.09,WSW,252,2.0,4.0,64,0.00,,,0.00,weatherlink.com 1.10,2013-03-06 09:52:00,
2013-03-06 02:07:00,55.1,43.0,30.09,West,259,2.0,5.0,64,0.00,,,0.00,weatherlink.com 1.10,2013-03-06 10:07:00,
2013-03-06 02:22:00,55.1,43.0,30.09,SW,234,1.0,4.0,65,0.00,,,0.00,weatherlink.com 1.10,2013-03-06 10:22:00,
2013-03-06 02:37:00,54.8,44.0,30.08,WSW,240,3.0,4.0,66,0.00,,,0.00,weatherlink.com 1.10,2013-03-06 10:37:00,
2013-03-06 02:52:00,54.7,43.0,30.08,West,265,1.0,5.0,66,0.00,,,0.00,weatherlink.com 1.10,2013-03-06 10:52:00,
2013-03-06 03:07:00,54.7,43.0,30.08,West,262,1.0,3.0,66,0.00,,,0.00,weatherlink.com 1.10,2013-03-06 11:07:00,
2013-03-06 03:22:00,54.6,43.0,30.09,West,259,1.0,5.0,66,0.00,,,0.00,weatherlink.com 1.10,2013-03-06 11:22:00,
2013-03-06 03:37:00,54.5,43.0,30.08,WSW,250,0.0,3.0,66,0.00,,,0.00,weatherlink.com 1.10,2013-03-06 11:37:00,
2013-03-06 03:52:00,54.1,44.0,30.09,WNW,284,1.0,2.0,68,0.00,,,0.00,weatherlink.com 1.10,2013-03-06 11:52:00,
2013-03-06 04:07:00,53.9,43.0,30.09,WNW,287,0.0,2.0,68,0.00,,,0.00,weatherlink.com 1.10,2013-03-06 12:07:00,
2013-03-06 04:22:00,53.5,43.0,30.09,WNW,287,1.0,1.0,68,0.00,,,0.00,weatherlink.com 1.10,2013-03-06 12:22:00,
2013-03-06 04:37:00,52.5,43.0,30.09,WNW,287,0.0,0.0,70,0.00,,,0.00,weatherlink.com 1.10,2013-03-06 12:37:00,
2013-03-06 04:52:00,51.6,43.0,30.09,WNW,287,0.0,0.0,72,0.00,,,0.00,weatherlink.com 1.10,2013-03-06 12:52:00,
2013-03-06 05:07:00,50.2,42.0,30.09,WNW,287,0.0,0.0,74,0.00,,,0.00,weatherlink.com 1.10,2013-03-06 13:07:00,
2013-03-06 05:22:00,49.3,42.0,30.10,WNW,288,0.0,0.0,77,0.00,,,0.00,weatherlink.com 1.10,2013-03-06 13:22:00,
2013-03-06 05:37:00,49.1,43.0,30.09,WNW,287,0.0,0.0,78,0.00,,,0.00,weatherlink.com 1.10,2013-03-06 13:37:00,
2013-03-06 05:52:00,48.8,43.0,30.10,WNW,287,0.0,0.0,79,0.00,,,0.00,weatherlink.com 1.10,2013-03-06 13:52:00,
2013-03-06 06:07:00,48.6,43.0,30.10,WNW,288,0.0,0.0,80,0.00,,,0.00,weatherlink.com 1.10,2013-03-06 14:07:00,
2013-03-06 06:22:00,48.6,43.0,30.09,WNW,288,0.0,0.0,80,0.00,,,0.00,weatherlink.com 1.10,2013-03-06 14:22:00,
2013-03-06 06:37:00,48.8,43.0,30.10,WNW,287,0.0,0.0,81,0.00,,,0.00,weatherlink.com 1.10,2013-03-06 14:37:00,
2013-03-06 06:52:00,51.0,44.0,30.10,WNW,287,0.0,1.0,77,0.00,,,0.00,weatherlink.com 1.10,2013-03-06 14:52:00,
2013-03-06 07:07:00,52.3,44.0,30.11,WNW,287,0.0,0.0,74,0.00,,,0.00,weatherlink.com 1.10,2013-03-06 15:07:00,
2013-03-06 07:22:00,54.0,46.0,30.11,WNW,287,0.0,1.0,73,0.00,,,0.00,weatherlink.com 1.10,2013-03-06 15:22:00,
2013-03-06 07:39:00,55.3,45.0,30.11,NW,319,0.0,2.0,68,0.00,,,0.00,weatherlink.com 1.10,2013-03-06 15:39:00,
2013-03-06 07:52:00,57.0,45.0,30.12,NNW,332,0.0,1.0,64,0.00,,,0.00,weatherlink.com 1.10,2013-03-06 15:52:00,
2013-03-06 08:08:00,57.8,44.0,30.12,East,80,1.0,3.0,60,0.00,,,0.00,weatherlink.com 1.10,2013-03-06 16:08:00,
2013-03-06 08:23:00,57.7,44.0,30.12,ESE,116,1.0,4.0,60,0.00,,,0.00,weatherlink.com 1.10,2013-03-06 16:23:00,
2013-03-06 08:38:00,58.3,44.0,30.12,NE,42,4.0,4.0,59,0.00,,,0.00,weatherlink.com 1.10,2013-03-06 16:38:00,
2013-03-06 08:53:00,58.9,43.0,30.12,ESE,117,0.0,3.0,57,0.00,,,0.00,weatherlink.com 1.10,2013-03-06 16:53:00,
2013-03-06 09:08:00,59.7,44.0,30.12,WNW,285,0.0,3.0,57,0.00,,,0.00,weatherlink.com 1.10,2013-03-06 17:08:00,
2013-03-06 09:23:00,60.1,43.0,30.13,SW,233,0.0,3.0,54,0.00,,,0.00,weatherlink.com 1.10,2013-03-06 17:23:00,
2013-03-06 09:38:00,59.6,44.0,30.12,SSW,206,0.0,3.0,56,0.00,,,0.00,weatherlink.com 1.10,2013-03-06 17:38:00,
2013-03-06 09:53:00,60.3,43.0,30.11,SSW,208,1.0,6.0,54,0.00,,,0.00,weatherlink.com 1.10,2013-03-06 17:53:00,
2013-03-06 10:08:00,60.9,42.0,30.11,West,264,5.0,6.0,51,0.00,,,0.00,weatherlink.com 1.10,2013-03-06 18:08:00,
2013-03-06 10:23:00,62.1,42.0,30.11,SE,134,4.0,8.0,48,0.00,,,0.00,weatherlink.com 1.10,2013-03-06 18:23:00,
2013-03-06 10:38:00,62.1,42.0,30.11,SE,132,4.0,7.0,48,0.00,,,0.00,weatherlink.com 1.10,2013-03-06 18:38:00,
2013-03-06 10:53:00,62.4,43.0,30.11,SW,227,3.0,9.0,49,0.00,,,0.00,weatherlink.com 1.10,2013-03-06 18:53:00,
2013-03-06 11:08:00,63.0,43.0,30.10,SSE,152,5.0,8.0,49,0.00,,,0.00,weatherlink.com 1.10,2013-03-06 19:08:00,
2013-03-06 11:23:00,63.2,43.0,30.10,SW,223,2.0,9.0,48,0.00,,,0.00,weatherlink.com 1.10,2013-03-06 19:23:00,
2013-03-06 11:38:00,63.0,42.0,30.10,SW,232,5.0,12.0,46,0.00,,,0.00,weatherlink.com 1.10,2013-03-06 19:38:00,
2013-03-06 11:53:00,62.8,42.0,30.09,SW,219,4.0,13.0,46,0.00,,,0.00,weatherlink.com 1.10,2013-03-06 19:53:00,
2013-03-06 12:08:00,62.5,41.0,30.09,SSW,209,4.0,9.0,46,0.00,,,0.00,weatherlink.com 1.10,2013-03-06 20:08:00,
2013-03-06 12:23:00,63.0,42.0,30.08,WSW,255,5.0,11.0,46,0.00,,,0.00,weatherlink.com 1.10,2013-03-06 20:23:00,
2013-03-06 12:38:00,63.2,41.0,30.07,WSW,252,4.0,9.0,45,0.00,,,0.00,weatherlink.com 1.10,2013-03-06 20:38:00,
2013-03-06 12:53:00,63.8,42.0,30.07,SW,222,3.0,7.0,46,0.00,,,0.00,weatherlink.com 1.10,2013-03-06 20:53:00,
2013-03-06 13:08:00,63.9,43.0,30.05,SW,231,5.0,10.0,46,0.00,,,0.00,weatherlink.com 1.10,2013-03-06 21:08:00,
2013-03-06 13:38:00,64.6,42.0,30.04,WSW,248,6.0,9.0,44,0.00,,,0.00,weatherlink.com 1.10,2013-03-06 21:38:00,
2013-03-06 13:53:00,63.8,43.0,30.04,East,97,2.0,11.0,47,0.00,,,0.00,weatherlink.com 1.10,2013-03-06 21:53:00,
2013-03-06 14:08:00,64.1,44.0,30.03,SW,235,5.0,8.0,48,0.00,,,0.00,weatherlink.com 1.10,2013-03-06 22:08:00,
2013-03-06 14:23:00,64.4,44.0,30.03,SW,224,4.0,9.0,47,0.00,,,0.00,weatherlink.com 1.10,2013-03-06 22:23:00,
2013-03-06 14:38:00,63.9,44.0,30.03,SSW,206,6.0,10.0,48,0.00,,,0.00,weatherlink.com 1.10,2013-03-06 22:38:00,
2013-03-06 14:53:00,63.0,45.0,30.02,SE,132,2.0,10.0,52,0.00,,,0.00,weatherlink.com 1.10,2013-03-06 22:53:00,
2013-03-06 15:08:00,63.6,44.0,30.02,SW,223,4.0,9.0,50,0.00,,,0.00,weatherlink.com 1.10,2013-03-06 23:08:00,
2013-03-06 15:23:00,63.7,45.0,30.02,SW,227,5.0,9.0,50,0.00,,,0.00,weatherlink.com 1.10,2013-03-06 23:23:00,
2013-03-06 15:38:00,63.6,45.0,30.01,SW,215,3.0,9.0,51,0.00,,,0.00,weatherlink.com 1.10,2013-03-06 23:38:00,
2013-03-06 15:53:00,63.9,45.0,30.01,SW,227,4.0,8.0,50,0.00,,,0.00,weatherlink.com 1.10,2013-03-06 23:53:00,
2013-03-06 16:08:00,63.6,44.0,30.00,NW,320,8.0,11.0,50,0.00,,,0.00,weatherlink.com 1.10,2013-03-07 00:08:00,
2013-03-06 16:23:00,63.8,45.0,30.00,NW,321,7.0,9.0,51,0.00,,,0.00,weatherlink.com 1.10,2013-03-07 00:23:00,
2013-03-06 16:38:00,62.7,45.0,30.01,West,274,4.0,8.0,52,0.00,,,0.00,weatherlink.com 1.10,2013-03-07 00:38:00,
2013-03-06 16:53:00,61.5,45.0,30.00,WSW,258,5.0,8.0,56,0.00,,,0.00,weatherlink.com 1.10,2013-03-07 00:53:00,
2013-03-06 17:08:00,61.3,46.0,30.01,West,260,3.0,9.0,58,0.00,,,0.00,weatherlink.com 1.10,2013-03-07 01:08:00,
2013-03-06 17:23:00,61.2,46.0,30.01,West,281,4.0,7.0,58,0.00,,,0.00,weatherlink.com 1.10,2013-03-07 01:23:00,
2013-03-06 17:38:00,61.3,46.0,30.01,West,276,2.0,5.0,57,0.00,,,0.00,weatherlink.com 1.10,2013-03-07 01:38:00,
2013-03-06 17:53:00,60.9,45.0,30.01,WNW,294,5.0,10.0,56,0.00,,,0.00,weatherlink.com 1.10,2013-03-07 01:53:00,
2013-03-06 18:08:00,60.2,45.0,30.01,WNW,295,5.0,7.0,58,0.00,,,0.00,weatherlink.com 1.10,2013-03-07 02:08:00,
2013-03-06 18:23:00,59.3,46.0,30.01,WNW,300,5.0,8.0,61,0.00,,,0.00,weatherlink.com 1.10,2013-03-07 02:23:00,
2013-03-06 18:38:00,58.7,47.0,30.01,NNW,339,4.0,6.0,65,0.00,,,0.00,weatherlink.com 1.10,2013-03-07 02:38:00,
2013-03-06 18:53:00,58.2,47.0,30.00,WNW,297,2.0,7.0,67,0.00,,,0.00,weatherlink.com 1.10,2013-03-07 02:53:00,
2013-03-06 19:08:00,58.2,47.0,30.01,West,272,4.0,5.0,67,0.00,,,0.00,weatherlink.com 1.10,2013-03-07 03:08:00,
2013-03-06 19:23:00,58.5,48.0,30.00,WNW,287,1.0,3.0,68,0.00,,,0.00,weatherlink.com 1.10,2013-03-07 03:23:00,
2013-03-06 19:39:00,58.6,48.0,30.00,WNW,293,4.0,4.0,69,0.00,,,0.00,weatherlink.com 1.10,2013-03-07 03:39:00,
2013-03-06 19:53:00,58.5,49.0,30.00,WNW,295,0.0,4.0,70,0.00,,,0.00,weatherlink.com 1.10,2013-03-07 03:53:00,
2013-03-06 20:09:00,58.6,49.0,30.00,NW,305,1.0,3.0,70,0.00,,,0.00,weatherlink.com 1.10,2013-03-07 04:09:00,
2013-03-06 20:23:00,58.8,49.0,30.00,West,273,0.0,4.0,69,0.00,,,0.00,weatherlink.com 1.10,2013-03-07 04:23:00,
2013-03-06 20:38:00,58.7,49.0,30.00,WNW,295,1.0,2.0,69,0.00,,,0.00,weatherlink.com 1.10,2013-03-07 04:38:00,
2013-03-06 20:54:00,58.7,49.0,30.00,WNW,290,0.0,1.0,70,0.00,,,0.00,weatherlink.com 1.10,2013-03-07 04:54:00,
2013-03-06 21:09:00,58.9,49.0,30.00,WSW,240,2.0,4.0,69,0.00,,,0.00,weatherlink.com 1.10,2013-03-07 05:09:00,
2013-03-06 21:24:00,58.8,49.0,30.00,SW,214,3.0,6.0,70,0.00,,,0.00,weatherlink.com 1.10,2013-03-07 05:24:00,
2013-03-06 21:39:00,58.2,50.0,30.00,WSW,257,4.0,5.0,73,0.00,,,0.00,weatherlink.com 1.10,2013-03-07 05:39:00,
2013-03-06 21:54:00,57.8,50.0,30.01,SW,216,0.0,2.0,74,0.00,,,0.00,weatherlink.com 1.10,2013-03-07 05:54:00,
2013-03-06 22:09:00,57.5,50.0,30.00,SSE,156,2.0,4.0,75,0.00,,,0.00,weatherlink.com 1.10,2013-03-07 06:09:00,
2013-03-06 22:24:00,57.2,50.0,30.00,SSW,206,3.0,3.0,77,0.00,,,0.00,weatherlink.com 1.10,2013-03-07 06:24:00,
2013-03-06 22:39:00,56.9,50.0,30.00,SE,129,0.0,3.0,79,0.00,,,0.00,weatherlink.com 1.10,2013-03-07 06:39:00,
2013-03-06 22:54:00,56.9,50.0,29.99,South,175,1.0,3.0,78,0.00,,,0.00,weatherlink.com 1.10,2013-03-07 06:54:00,
2013-03-06 23:09:00,56.9,50.0,29.99,South,174,2.0,2.0,78,0.00,,,0.00,weatherlink.com 1.10,2013-03-07 07:09:00,
2013-03-06 23:24:00,57.2,50.0,29.99,WSW,245,0.0,2.0,76,0.00,,,0.00,weatherlink.com 1.10,2013-03-07 07:24:00,
2013-03-06 23:54:00,56.8,50.0,29.99,WSW,250,2.0,4.0,77,0.00,,,0.00,weatherlink.com 1.10,2013-03-07 07:54:00,